Simultaneous Nadir Overpasses (SNOs) Predictions

Prediction of SNOs near US between AQUA and NPP Satellite Orbit:

Table of predicted SNOs near US for the next 10.0 days since TLE Epoch: 3/8/2014
Index Date (AQUA) Time (AQUA) AQUA Lat,Lon Date (NPP) Time (NPP) NPP Lat,Lon Distance(km) Time Diff (sec)
1 03/08/2014 06:30:48 46.21, -65.02 03/08/2014 06:34:08 46.63, -67.00 158.57 200
2 03/08/2014 08:08:39 49.90, -88.28 03/08/2014 08:14:33 50.37, -90.77 185.16 354
3 03/08/2014 09:47:32 49.91,-113.00 03/08/2014 09:55:51 51.05,-115.83 237.29 499
4 03/10/2014 19:06:53 49.96, -92.52 03/10/2014 19:04:50 49.60, -94.42 141.97 123
5 03/10/2014 20:45:14 48.11,-116.49 03/10/2014 20:45:45 47.65,-118.95 191.19 31
6 03/13/2014 06:56:45 20.02, -77.13 03/13/2014 06:48:25 18.93, -76.88 124.19 500
7 03/13/2014 08:33:24
